Location: Unspecified
(0.0000°N, 0.0000°E)
Time: 06:08:59
(UTC+00:00)

LightSail 2 - Pass Details

Date: 11 October 2019
Orbit: 707 x 723 km, 24.0° (Epoch: 13 October)

Event Time Altitude Azimuth Distance (km) Brightness Sun altitude
Exits shadow 03:19:15 22° 120° (ESE) 1,514 7.3 -36.6°
Drops below altitude 10° 03:21:03 10° 118° (ESE) 2,172 8.3 -36.2°
Sets 03:23:29 0° 117° (ESE) 3,089 9.3 -35.6°
